Terminal Aerodrome Forecast
Issued by NWS Grand Forks, ND

Home | Current Version | Previous Version | Graphics & Text | Print | Product List | Glossary On
Versions: 1 2 3 4 5 6 7 8 9 10 11 12
000
FTUS43 KFGF 251720
TAFGFK
TAF
KGFK 251720Z 2518/2618 33005KT P6SM FEW150 OVC200
     FM260000 22006KT P6SM BKN250
     FM261200 27006KT P6SM BKN250=

USA.gov is the U.S. government's official web portal to all federal, state and local government web resources and services.